Date String (YYYY-MM-DD hh:mm:ss) UTC,Instrument flags,absolute air pressure of the measurement (hPa),sample flow rate (lpm),inlet stack bypass flow (lpm),air temperature of the measurement (°C),ambient temperature measured by the external sensor (°C),aerosol sample conditioner tube jacket temperature (°C),OPC LED temperature (°C),internal box temperature (°C),relative humidity of the measurement (%),span deviation,mass concentration of particles derived from Lorenz-Mie calculation of OPC scattering (μg/m³),mass concentration of particles derived from Lorenz-Mie calculation of OPC scattering (μg/m³),mass concentration of particles derived from Lorenz-Mie calculation of OPC scattering (μg/m³)
DateTimeUTC,F1_M11,P_M11,Q1_M11,Q2_M11,T1_M11,T2_M11,T3_M11,T4_M11,T5_M11,U1_M11,ZSPAN_M11,X2_M11,X0_M11,X1_M11
2023-10-15 23:00:00,SystemResetWarning,0838.8,4.99,000.00,028.7,026.5,000.0,037.0,030.5,13.5,0000.0,0003.29,0006.00,0002.86
2023-10-15 23:01:00,SystemResetWarning,0838.8,5.01,000.00,028.7,025.1,000.0,036.9,030.3,13.6,0000.0,0003.28,0005.98,0002.88
2023-10-15 23:02:00,SystemResetWarning,0838.8,5.01,000.00,028.6,025.0,000.0,036.9,030.1,13.6,0000.0,0003.29,0006.05,0002.91
2023-10-15 23:03:00,SystemResetWarning,0838.8,5.00,000.00,028.5,025.3,000.0,036.9,030.0,13.7,0000.0,0003.29,0006.98,0002.91
2023-10-15 23:04:00,SystemResetWarning,0838.8,5.00,000.00,028.5,025.6,000.0,036.9,030.0,13.7,0000.0,0003.27,0007.16,0002.91
2023-10-15 23:05:00,SystemResetWarning,0838.8,5.00,000.00,028.5,026.0,000.0,036.9,030.1,13.7,0000.0,0003.26,0007.07,0002.90
2023-10-15 23:06:00,SystemResetWarning,0838.8,5.00,000.00,028.5,026.3,000.0,036.9,030.1,13.7,0000.0,0003.24,0007.57,0002.91
2023-10-15 23:07:00,SystemResetWarning,0838.8,5.00,000.00,028.5,026.6,000.0,036.9,030.2,13.6,0000.0,0003.23,0007.37,0002.91
2023-10-15 23:08:00,SystemResetWarning,0838.8,5.00,000.00,028.5,026.9,000.0,036.9,030.2,13.7,0000.0,0003.23,0007.34,0002.90
2023-10-15 23:09:00,SystemResetWarning,0838.8,5.00,000.00,028.6,027.1,000.0,036.9,030.3,13.7,0000.0,0003.24,0008.00,0002.89
2023-10-15 23:10:00,SystemResetWarning,0838.8,4.99,000.00,028.6,027.3,000.0,036.9,030.3,13.6,0000.0,0003.25,0008.03,0002.89
2023-10-15 23:11:00,SystemResetWarning,0838.8,4.98,000.00,028.6,027.4,000.0,037.0,030.4,13.6,0000.0,0003.24,0008.45,0002.87
2023-10-15 23:12:00,SystemResetWarning,0838.8,5.02,000.00,028.7,027.5,000.0,037.0,030.5,13.5,0000.0,0003.23,0008.46,0002.87
2023-10-15 23:13:00,SystemResetWarning,0838.8,5.00,000.00,028.7,027.6,000.0,037.0,030.5,13.5,0000.0,0003.23,0008.48,0002.87
2023-10-15 23:14:00,SystemResetWarning,0838.8,4.98,000.00,028.7,026.1,000.0,037.0,030.4,13.5,0000.0,0003.22,0008.27,0002.87
2023-10-15 23:15:00,SystemResetWarning,0838.8,5.01,000.00,028.6,025.0,000.0,036.9,030.3,13.5,0000.0,0003.23,0007.83,0002.89
2023-10-15 23:16:00,SystemResetWarning,0838.8,5.02,000.00,028.6,025.0,000.0,036.9,030.1,13.6,0000.0,0003.25,0007.85,0002.91
2023-10-15 23:17:00,SystemResetWarning,0838.8,4.99,000.00,028.5,025.3,000.0,036.9,030.0,13.7,0000.0,0003.26,0008.21,0002.90
2023-10-15 23:18:00,SystemResetWarning,0838.8,5.00,000.00,028.5,025.6,000.0,036.9,030.0,13.7,0000.0,0003.30,0008.13,0002.89
2023-10-15 23:19:00,SystemResetWarning,0838.8,5.01,000.00,028.4,026.0,000.0,036.9,030.0,13.6,0000.0,0003.33,0008.31,0002.90
2023-10-15 23:20:00,SystemResetWarning,0838.8,4.99,000.00,028.5,026.3,000.0,036.9,030.1,13.6,0000.0,0003.35,0008.19,0002.91
2023-10-15 23:21:00,SystemResetWarning,0838.8,4.99,000.00,028.5,026.6,000.0,036.9,030.2,13.5,0000.0,0003.33,0008.26,0002.91
2023-10-15 23:22:00,SystemResetWarning,0838.8,5.00,000.00,028.5,026.9,000.0,036.9,030.2,13.7,0000.0,0003.33,0007.99,0002.93
2023-10-15 23:23:00,SystemResetWarning,0838.8,5.00,000.00,028.6,027.1,000.0,036.9,030.3,13.7,0000.0,0003.35,0008.16,0002.93
2023-10-15 23:24:00,SystemResetWarning,0838.9,5.00,000.00,028.6,027.3,000.0,036.9,030.4,13.6,0000.0,0003.34,0008.13,0002.91
2023-10-15 23:25:00,SystemResetWarning,0838.9,5.01,000.00,028.6,027.4,000.0,037.0,030.4,13.7,0000.0,0003.36,0008.12,0002.89
2023-10-15 23:26:00,SystemResetWarning,0838.9,5.00,000.00,028.7,027.6,000.0,037.0,030.5,13.6,0000.0,0003.34,0008.07,0002.86
2023-10-15 23:27:00,SystemResetWarning,0838.9,4.98,000.00,028.7,026.8,000.0,037.0,030.4,13.6,0000.0,0003.32,0008.01,0002.84
2023-10-15 23:28:00,SystemResetWarning,0838.9,5.00,000.00,028.6,024.7,000.0,036.9,030.1,13.7,0000.0,0003.30,0008.04,0002.85
2023-10-15 23:29:00,SystemResetWarning,0838.9,5.00,000.00,028.5,023.9,000.0,036.8,029.9,13.8,0000.0,0003.27,0007.96,0002.86
2023-10-15 23:30:00,SystemResetWarning,0838.9,5.02,000.00,028.4,024.1,000.0,036.8,029.7,13.9,0000.0,0003.26,0008.07,0002.87
2023-10-15 23:31:00,SystemResetWarning,0838.9,5.01,000.00,028.2,024.5,000.0,036.8,029.6,13.9,0000.0,0003.26,0007.64,0002.87
2023-10-15 23:32:00,SystemResetWarning,0838.9,5.00,000.00,028.2,024.9,000.0,036.8,029.7,13.9,0000.0,0003.27,0007.64,0002.86
2023-10-15 23:33:00,SystemResetWarning,0838.9,4.99,000.00,028.2,025.4,000.0,036.8,029.7,13.9,0000.0,0003.26,0007.71,0002.83
2023-10-15 23:34:00,SystemResetWarning,0838.9,5.00,000.00,028.2,025.8,000.0,036.8,029.8,13.9,0000.0,0003.24,0007.44,0002.82
2023-10-15 23:35:00,SystemResetWarning,0838.9,5.00,000.00,028.2,026.1,000.0,036.7,029.9,14.0,0000.0,0003.26,0007.77,0002.83
2023-10-15 23:36:00,SystemResetWarning,0838.9,5.00,000.00,028.2,026.4,000.0,036.7,029.9,13.9,0000.0,0003.24,0007.96,0002.83
2023-10-15 23:37:00,SystemResetWarning,0838.8,5.01,000.00,028.3,026.6,000.0,036.7,030.0,13.8,0000.0,0003.24,0008.00,0002.84
2023-10-15 23:38:00,SystemResetWarning,0838.8,5.00,000.00,028.3,026.8,000.0,036.7,030.1,13.7,0000.0,0003.24,0008.06,0002.84
2023-10-15 23:39:00,SystemResetWarning,0838.8,4.98,000.00,028.4,027.0,000.0,036.7,030.1,13.8,0000.0,0003.25,0007.61,0002.84
2023-10-15 23:40:00,SystemResetWarning,0838.9,5.01,000.00,028.4,027.2,000.0,036.7,030.2,13.7,0000.0,0003.25,0007.33,0002.82
2023-10-15 23:41:00,SystemResetWarning,0838.9,5.00,000.00,028.4,027.3,000.0,036.8,030.2,13.7,0000.0,0003.22,0006.96,0002.80
2023-10-15 23:42:00,SystemResetWarning,0838.8,5.01,000.00,028.5,027.4,000.0,036.8,030.3,13.6,0000.0,0003.19,0007.23,0002.79
2023-10-15 23:43:00,SystemResetWarning,0838.9,4.99,000.00,028.5,027.5,000.0,036.8,030.3,13.6,0000.0,0003.18,0007.30,0002.79
2023-10-15 23:44:00,SystemResetWarning,0838.9,4.98,000.00,028.6,027.6,000.0,036.8,030.4,13.6,0000.0,0003.19,0007.24,0002.80
2023-10-15 23:45:00,SystemResetWarning,0838.9,5.01,000.00,028.6,027.6,000.0,036.8,030.4,13.6,0000.0,0003.19,0007.25,0002.79
2023-10-15 23:46:00,SystemResetWarning,0839.0,5.01,000.00,028.6,027.7,000.0,036.9,030.5,13.6,0000.0,0003.17,0007.00,0002.77
2023-10-15 23:47:00,SystemResetWarning,0839.1,4.99,000.00,028.7,027.8,000.0,036.9,030.5,13.6,0000.0,0003.15,0006.49,0002.77
2023-10-15 23:48:00,SystemResetWarning,0839.0,4.99,000.00,028.7,027.8,000.0,036.9,030.6,13.5,0000.0,0003.15,0006.67,0002.77
2023-10-15 23:49:00,SystemResetWarning,0839.1,5.00,000.00,028.7,026.6,000.0,036.9,030.5,13.5,0000.0,0003.19,0007.69,0002.79
2023-10-15 23:50:00,SystemResetWarning,0839.0,5.00,000.00,028.7,025.0,000.0,036.9,030.3,13.5,0000.0,0003.22,0008.38,0002.78
2023-10-15 23:51:00,SystemResetWarning,0839.0,5.02,000.00,028.6,024.8,000.0,036.9,030.2,13.6,0000.0,0003.23,0009.06,0002.79
2023-10-15 23:52:00,SystemResetWarning,0839.1,5.00,000.00,028.5,025.1,000.0,036.9,030.0,13.7,0000.0,0003.27,0009.32,0002.79
2023-10-15 23:53:00,SystemResetWarning,0839.0,5.00,000.00,028.5,025.4,000.0,036.9,030.0,13.8,0000.0,0003.27,0009.25,0002.79
2023-10-15 23:54:00,SystemResetWarning,0839.1,5.01,000.00,028.4,025.8,000.0,036.9,030.0,13.8,0000.0,0003.29,0010.21,0002.79
2023-10-15 23:55:00,SystemResetWarning,0839.1,5.00,000.00,028.4,026.2,000.0,036.9,030.1,13.8,0000.0,0003.29,0010.50,0002.80
2023-10-15 23:56:00,SystemResetWarning,0839.1,5.00,000.00,028.5,026.4,000.0,036.9,030.1,13.7,0000.0,0003.30,0010.46,0002.82
2023-10-15 23:57:00,SystemResetWarning,0839.1,5.00,000.00,028.5,026.7,000.0,036.9,030.2,13.7,0000.0,0003.30,0010.22,0002.83
2023-10-15 23:58:00,SystemResetWarning,0839.1,5.00,000.00,028.5,026.9,000.0,036.9,030.2,13.7,0000.0,0003.30,0010.18,0002.83
2023-10-15 23:59:00,SystemResetWarning,0839.1,4.99,000.00,028.5,027.1,000.0,036.9,030.3,13.7,0000.0,0003.31,0010.35,0002.83
